Flag for United Kingdom Weather past 2 weeks in Swanage, England, United Kingdom

Now
43 °F

Passing clouds.


Feels Like: 40 °F
Forecast: N/A
Wind: 5 mph from Southwest

Location: Bournemouth Airport

Current Time: Mar 5, 2015 at 8:56:42 PM

Latest Report: Mar 5, 2015 at 7:50 PM


Visibility: N/A

Pressure: 30.66 "Hg

Humidity: 87%

Dew point: 39 °F

Location of SwanageLocation

Historic Weather in Swanage — Graph

°F

Swanage temperature yesterday

Maximum temperature yesterday: 50 °F (at 12:50 PM)
Minimum temperature yesterday: 30 °F (at 7:20 AM)
Average temperature yesterday: 42 °F

Past Weeks' High & Low Weather Summary

 TemperatureHumidityPressure
High55 °F (Feb 25, 2:50 PM)100% (Feb 19, 9:50 PM)30.74 "Hg (Feb 19, 9:50 PM)
Low25 °F (Feb 22, 4:50 AM)43% (Mar 3, 3:20 PM)29.30 "Hg (Feb 23, 2:50 PM)
Average44 °F80%29.92 "Hg
* Reported Feb 18 7:20 PM — Mar 5 7:50 PM, Swanage, Weather by CustomWeather, © 2015

Note: Actual official high and low records may vary slightly from our data, if they occured in-between our weather recording intervals... More about our weather records

Advertising

Swanage weather history for previous 24 hours

 ConditionsComfort  
Time TempWeatherWind HumidityBarometerVisibility
7:50 PM
Thu, Mar 5
43 °FPassing clouds.5 mph87%30.66 "HgN/A
7:20 PM41 °FPassing clouds.6 mph87%30.66 "HgN/A
6:50 PM45 °FPassing clouds.7 mph81%30.66 "HgN/A
6:20 PM46 °FPassing clouds.5 mph76%30.66 "HgN/A
5:50 PM46 °FPassing clouds.7 mph76%30.66 "HgN/A
4:50 PM50 °FPartly sunny.8 mph71%30.66 "HgN/A
4:20 PM52 °FPartly sunny.10 mph67%30.66 "HgN/A
3:50 PM52 °FPartly sunny.10 mph62%30.66 "HgN/A
3:20 PM52 °FPassing clouds.10 mph58%30.66 "HgN/A
2:50 PM52 °FPassing clouds.12 mph58%30.66 "HgN/A
2:20 PM54 °FPassing clouds.12 mph54%30.69 "HgN/A
1:50 PM54 °FPassing clouds.13 mph54%30.69 "HgN/A
1:20 PM50 °FScattered clouds.9 mph62%30.69 "HgN/A
12:50 PM52 °FScattered clouds.12 mph62%30.69 "HgN/A
12:20 PM50 °FScattered clouds.9 mph62%30.69 "HgN/A
11:50 AM50 °FScattered clouds.10 mph62%30.72 "HgN/A
10:50 AM48 °FPassing clouds.9 mph71%30.72 "HgN/A
10:20 AM48 °FPassing clouds.10 mph76%30.72 "HgN/A
9:50 AM46 °FSunny.2 mph82%30.72 "Hg10 mi
9:20 AM41 °FSunny.2 mph87%30.72 "Hg10 mi
8:50 AM36 °FSunny.1 mph100%30.74 "Hg10 mi
8:20 AM30 °FSunny.1 mph100%30.74 "Hg10 mi
7:50 AM27 °FSunny.1 mph93%30.74 "Hg10 mi
7:20 AM27 °FSunny.1 mph93%30.74 "Hg10 mi
6:50 AM27 °FSunny.1 mph93%30.72 "Hg10 mi
6:20 AM25 °FClear.2 mph93%30.72 "Hg10 mi
5:50 AM27 °FClear.2 mph93%30.74 "Hg10 mi
4:50 AM27 °FClear.2 mph93%30.72 "Hg10 mi
2:50 AM27 °FClear.2 mph93%30.72 "Hg10 mi
1:50 AM28 °FClear.2 mph93%30.72 "Hg10 mi
10:50 PM
Wed, Mar 4
34 °FClear.2 mph87%30.69 "Hg10 mi
10:20 PM36 °FClear.5 mph81%30.69 "Hg10 mi
9:20 PM39 °FClear.8 mph75%30.66 "Hg10 mi
8:50 PM39 °FClear.5 mph75%30.66 "Hg10 mi
8:20 PM39 °FClear.7 mph75%30.66 "Hg10 mi
Weather by CustomWeather, © 2015

See weather overviewHow to use our weather pages